Change the Weather History Date:

Wednesday, November 21, 2007

  Actual Average Record
Temperature  
Mean Temperature 53 °F 46 °F  
Max Temperature 68 °F 57 °F 76 °F (1994)
Min Temperature 37 °F 34 °F 11 °F (1914)
Degree Days  
Heating Degree Days 12 19  
Month to date heating degree days 367 343  
Since 1 July heating degree days 599 678  
Cooling Degree Days 0 0  
Month to date cooling degree days 0 0  
Year to date cooling degree days 984 862  
Growing Degree Days 2 (Base 50)    
Moisture  
Dew Point 43 °F    
Average Humidity 76    
Maximum Humidity 100    
Minimum Humidity 52    
Precipitation  
Precipitation 0.01 in 0.14 in 1.72 in (2005)
Month to date precipitation 0.63 2.43  
Year to date precipitation 29.47 40.76  
Snow  
Snow 0.00 in 0.00 in 1.20 in (1966)
Month to date snowfall T 0.0  
Since 1 July snowfall T 0.0  
Since 1 September snowfall T 0.0  
Snow Depth -    
Sea Level Pressure  
Sea Level Pressure 30.13 in    
Wind  
Wind Speed 5 mph (WSW)    
Max Wind Speed 17 mph    
Max Gust Speed 23 mph    
Visibility 4 miles    
Events Fog , Rain    
T = Trace of Precipitation, MM = Missing Value Source: NWS Daily Summary

Daily Weather History Graph

Daily Weather History Graph

Search for Another Location

Airport or City:

Trip Planner

Search our weather history database for the weather conditions in past years. The results will help you decide how hot, cold, wet, or windy it might be!

Date:

Astronomy

Nov. 21, 2007 Rise Set
Actual Time 7:11 AM EST 5:20 PM EST
Civil Twilight 6:43 AM EST 5:47 PM EST
Nautical Twilight 6:12 AM EST 6:18 PM EST
Astronomical Twilight 5:42 AM EST 6:49 PM EST
Moon 3:04 PM EST (11/21) 3:34 AM EST (11/21)
Length of Visible Light 11h 04m
Length of Day
10h 09m
Waxing Gibbous, 88% of the Moon is Illuminated
Nov 21
Waxing Gibbous
Nov 24
Full
Dec 1
Last Quarter
Dec 9
New
Dec 17
First Quarter

Hourly Weather History & Observations

Time (EST) Temp. Windchill Dew Point Humidity Pressure Visibility Wind Dir Wind Speed Gust Speed Precip Events Conditions
12:54 AM 44.1 °F - 43.0 °F 96% 30.15 in 7.0 mi Calm Calm - N/A   Clear
1:54 AM 42.1 °F - 41.0 °F 96% 30.14 in 7.0 mi Calm Calm - N/A   Clear
2:46 AM 41.0 °F 38.0 °F 39.2 °F 93% 30.18 in 1.8 mi NNW 4.6 mph - N/A   Clear
2:48 AM 39.2 °F 35.0 °F 39.2 °F 100% 30.17 in 1.0 mi NNW 5.8 mph - N/A   Mist
2:54 AM 39.9 °F 35.8 °F 39.9 °F 100% 30.14 in 0.2 mi NNW 5.8 mph - N/A Fog Fog
3:25 AM 39.2 °F - 39.2 °F 100% 30.17 in 0.8 mi Calm Calm - N/A   Mist
3:54 AM 39.0 °F - 39.0 °F 100% 30.13 in 0.2 mi Calm Calm - N/A Fog Fog
4:09 AM 39.2 °F - 39.2 °F 100% 30.16 in 1.0 mi Calm Calm - N/A   Overcast
4:20 AM 37.4 °F - 37.4 °F 100% 30.16 in 0.5 mi Calm Calm - N/A Fog Fog
4:35 AM 39.2 °F - 39.2 °F 100% 30.16 in 0.2 mi Calm Calm - N/A Fog Fog
4:40 AM 39.2 °F - 39.2 °F 100% 30.17 in 1.0 mi Calm Calm - N/A   Mist
4:45 AM 37.4 °F 34.9 °F 37.4 °F 100% 30.17 in 1.5 mi NW 3.5 mph - N/A   Scattered Clouds
4:54 AM 37.9 °F 35.5 °F 37.9 °F 100% 30.15 in 1.2 mi NNW 3.5 mph - N/A   Scattered Clouds
5:11 AM 37.4 °F 32.1 °F 37.4 °F 100% 30.17 in 0.8 mi NW 6.9 mph - N/A   Clear
5:16 AM 37.4 °F 32.1 °F 37.4 °F 100% 30.17 in 0.2 mi NW 6.9 mph - N/A Fog Fog
5:37 AM 39.2 °F - 39.2 °F 100% 30.17 in 0.2 mi Calm Calm - N/A Fog Fog
5:54 AM 39.9 °F - 39.9 °F 100% 30.15 in 0.2 mi Calm Calm - N/A Fog Fog
6:18 AM 37.4 °F 33.8 °F 37.4 °F 100% 30.18 in 0.2 mi WNW 4.6 mph - N/A Fog Fog
6:54 AM 37.4 °F - 37.4 °F 100% 30.18 in 0.2 mi Calm Calm - N/A Fog Fog
7:51 AM 37.4 °F - 37.4 °F 100% 30.19 in 0.2 mi Calm Calm - N/A Fog Fog
7:54 AM 37.9 °F - 37.9 °F 100% 30.18 in 0.2 mi Calm Calm - N/A Fog Fog
8:39 AM 39.2 °F - 39.2 °F 100% 30.19 in 0.2 mi Calm Calm - N/A Fog Fog
8:54 AM 41.0 °F - 41.0 °F 100% 30.18 in 0.2 mi Calm Calm - N/A Fog Fog
9:09 AM 42.8 °F - 42.8 °F 100% 30.19 in 0.5 mi Calm Calm - N/A Fog Fog
9:13 AM 42.8 °F - 42.8 °F 100% 30.19 in 1.0 mi Calm Calm - N/A   Mist
9:16 AM 44.6 °F - 44.6 °F 100% 30.19 in 1.0 mi Calm Calm - N/A   Partly Cloudy
9:18 AM 44.6 °F - 44.6 °F 100% 30.19 in 4.0 mi Calm Calm - N/A   Partly Cloudy
9:54 AM 48.0 °F - 46.0 °F 93% 30.18 in 7.0 mi Calm Calm - N/A   Clear
10:54 AM 55.9 °F - 48.9 °F 77% 30.16 in 8.0 mi SE 3.5 mph - N/A   Clear
11:54 AM 63.0 °F - 46.9 °F 56% 30.11 in 10.0 mi Calm Calm - N/A   Clear
12:54 PM 66.9 °F - 48.0 °F 51% 30.06 in 10.0 mi SSW 13.8 mph - N/A   Mostly Cloudy
1:54 PM 64.9 °F - 48.0 °F 54% 30.06 in 10.0 mi SSW 13.8 mph 19.6 mph N/A   Mostly Cloudy
2:54 PM 64.0 °F - 50.0 °F 60% 30.05 in 10.0 mi SSW 16.1 mph 23.0 mph N/A   Overcast
3:54 PM 64.0 °F - 51.1 °F 63% 30.05 in 10.0 mi SSW 12.7 mph - N/A   Overcast
4:54 PM 62.1 °F - 50.0 °F 65% 30.05 in 10.0 mi SSW 8.1 mph - N/A   Scattered Clouds
5:54 PM 57.9 °F - 50.0 °F 75% 30.06 in 10.0 mi South 6.9 mph - N/A   Clear
6:54 PM 57.9 °F - 50.0 °F 75% 30.07 in 10.0 mi Calm Calm - N/A   Scattered Clouds
7:54 PM 57.9 °F - 50.0 °F 75% 30.06 in 10.0 mi SE 4.6 mph - N/A   Mostly Cloudy
8:54 PM 57.0 °F - 51.1 °F 81% 30.05 in 10.0 mi Variable 3.5 mph - N/A   Partly Cloudy
9:54 PM 59.0 °F - 53.1 °F 81% 30.04 in 9.0 mi SSW 8.1 mph - 0.00 in Rain Light Rain
10:54 PM 57.0 °F - 55.0 °F 93% 30.01 in 10.0 mi South 9.2 mph - 0.01 in Rain Light Rain
11:54 PM 55.9 °F - 55.0 °F 97% 29.99 in 8.0 mi Calm Calm - 0.00 in Rain Light Rain